Flag for USA Past Weather in Bryan – College Station, Texas, USA — Yesterday and Last 2 Weeks

Now
83 °F

Sunny.


Feels Like: 92 °F
Forecast: 77 / 98 °F
Wind: 8 mph from South

Location: Easterwood Field

Current Time: Jul 24, 2016 at 10:01:36 AM

Latest Report: Jul 24, 2016 at 8:53 AM


Visibility: 10 mi

Pressure: 29.97 "Hg

Humidity: 82%

Dew Point: 77 °F

Location of Bryan – College StationLocation

Past Weather in Bryan – College Station — Graph

°F

Bryan – College Station Temperature Yesterday

Maximum temperature yesterday: 98 °F (at 3:53 PM)
Minimum temperature yesterday: 77 °F (at 6:53 AM)
Average temperature yesterday: 88 °F

High & Low Weather Summary for the Past Weeks

 TemperatureHumidityPressure
High98 °F (Jul 13, 3:53 PM)100% (Jul 16, 6:53 AM)30.19 "Hg (Jul 16, 6:53 AM)
Low75 °F (Jul 16, 6:53 AM)35% (Jul 20, 4:53 PM)29.85 "Hg (Jul 23, 7:53 PM)
Average86 °F67%30.01 "Hg
* Reported Jul 9 8:53 AM — Jul 24 8:53 AM, Bryan – College Station, Weather by CustomWeather, © 2016

Note: Actual official high and low records may vary slightly from our data, if they occured in-between our weather recording intervals... More about our weather records

Advertising

Bryan – College Station Weather History for the Previous 24 Hours

Scroll right to see more
 ConditionsComfort  
Time TempWeatherWind HumidityBarometerVisibility
8:53 AM
Sun, Jul 24
83 °FSunny.8 mph82%29.97 "Hg10 mi
7:53 AM80 °FSunny.5 mph90%29.95 "Hg10 mi
6:53 AM78 °FPassing clouds.3 mph93%29.94 "Hg10 mi
5:53 AM78 °FPassing clouds.3 mph93%29.93 "Hg10 mi
4:53 AM79 °FClear.5 mph90%29.92 "Hg10 mi
3:53 AM80 °FClear.3 mph85%29.92 "Hg10 mi
2:53 AM81 °FClear.8 mph82%29.91 "Hg10 mi
1:53 AM82 °FClear.10 mph79%29.91 "Hg10 mi
12:53 AM84 °FClear.9 mph74%29.93 "Hg10 mi
11:53 PM
Sat, Jul 23
86 °FClear.12 mph67%29.93 "Hg10 mi
10:53 PM88 °FClear.8 mph61%29.91 "Hg10 mi
9:53 PM89 °FClear.12 mph59%29.89 "Hg10 mi
8:53 PM91 °FSunny.7 mph50%29.86 "Hg10 mi
7:53 PM95 °FSunny.8 mph43%29.85 "Hg10 mi
6:53 PM97 °FSunny.9 mph39%29.85 "Hg10 mi
5:53 PM98 °FSunny.12 mph38%29.86 "Hg10 mi
4:53 PM98 °FPassing clouds.8 mph38%29.89 "Hg10 mi
3:53 PM98 °FPassing clouds.12 mph39%29.90 "Hg10 mi
2:53 PM96 °FPassing clouds.7 mph41%29.93 "Hg10 mi
1:53 PM95 °FScattered clouds.8 mph46%29.95 "Hg10 mi
12:53 PM92 °FScattered clouds.9 mph51%29.97 "Hg10 mi
11:53 AM91 °FSunny.8 mph54%29.98 "Hg10 mi
10:53 AM88 °FPassing clouds.9 mph61%29.99 "Hg10 mi
Weather by CustomWeather, © 2016

See weather overviewHow to use our weather pages